Flag for Russia Weather past 2 weeks in Sochi, Russia

Now
82 °F

Broken clouds.


Feels Like: 91 °F
Forecast: 75 / 90 °F
Wind: 6 mph from West

Location: Adler

Current Time: Aug 3, 2015 at 8:38:12 PM

Latest Report: Aug 3, 2015 at 8:00 PM


Visibility: N/A

Pressure: 29.89 "Hg

Humidity: 84%

Dew point: 77 °F

Location of SochiLocation

Historic Weather in Sochi — Graph

°F

Sochi temperature yesterday

Maximum temperature yesterday: 86 °F (at 11:00 AM)
Minimum temperature yesterday: 77 °F (at 5:30 AM)
Average temperature yesterday: 82 °F

Past Weeks' High & Low Weather Summary

 TemperatureHumidityPressure
High90 °F (Jul 25, 9:30 AM)94% (Jul 24, 4:30 AM)29.98 "Hg (Jul 24, 4:30 AM)
Low64 °F (Jul 21, 5:00 AM)43% (Jul 25, 9:30 AM)29.62 "Hg (Jul 31, 5:00 PM)
Average79 °F74%29.82 "Hg
* Reported Jul 19 7:00 PM — Aug 3 7:30 PM, Sochi, Weather by CustomWeather, © 2015

Note: Actual official high and low records may vary slightly from our data, if they occured in-between our weather recording intervals... More about our weather records

Advertising

Sochi weather history for previous 24 hours

 ConditionsComfort  
Time TempWeatherWind HumidityBarometerVisibility
7:30 PM
Mon, Aug 3
82 °FPassing clouds.6 mph84%29.89 "HgN/A
7:00 PM84 °FPassing clouds.6 mph79%29.89 "HgN/A
6:30 PM84 °FPassing clouds.8 mph79%29.89 "HgN/A
6:00 PM84 °FPassing clouds.8 mph79%29.89 "HgN/A
5:30 PM86 °FScattered clouds.6 mph70%29.86 "HgN/A
5:00 PM86 °FScattered clouds.6 mph70%29.89 "HgN/A
4:30 PM86 °FThunderstorms. Scattered clouds.8 mph70%29.89 "HgN/A
4:00 PM88 °FScattered clouds.8 mph66%29.89 "HgN/A
3:30 PM86 °FPassing clouds.8 mph70%29.89 "HgN/A
3:00 PM86 °FPassing clouds.8 mph75%29.92 "HgN/A
2:30 PM86 °FScattered clouds.8 mph70%29.92 "HgN/A
2:00 PM86 °FScattered clouds.8 mph70%29.92 "HgN/A
1:30 PM84 °FScattered clouds.8 mph74%29.92 "HgN/A
12:30 PM86 °FPassing clouds.6 mph70%29.92 "HgN/A
12:00 PM86 °FPassing clouds.6 mph70%29.92 "HgN/A
11:30 AM84 °FPassing clouds.6 mph74%29.92 "HgN/A
11:00 AM84 °FPassing clouds.8 mph70%29.92 "HgN/A
10:30 AM86 °FPassing clouds.8 mph66%29.92 "HgN/A
10:00 AM86 °FPassing clouds.8 mph66%29.92 "HgN/A
9:30 AM84 °FPassing clouds.6 mph70%29.95 "HgN/A
9:00 AM84 °FPassing clouds.1 mph70%29.95 "HgN/A
8:30 AM84 °FPassing clouds.3 mph70%29.95 "HgN/A
8:00 AM82 °FPassing clouds.6 mph70%29.95 "HgN/A
7:30 AM81 °FClear.3 mph74%29.95 "HgN/A
7:00 AM79 °FClear.6 mph79%29.95 "HgN/A
6:30 AM79 °FClear.8 mph79%29.95 "HgN/A
6:00 AM77 °FClear.6 mph83%29.95 "HgN/A
5:30 AM77 °FPassing clouds.6 mph83%29.95 "HgN/A
5:00 AM77 °FPassing clouds.1 mph83%29.92 "HgN/A
4:30 AM79 °FPassing clouds.3 mph79%29.92 "HgN/A
4:00 AM77 °FPassing clouds.8 mph83%29.95 "HgN/A
3:30 AM77 °FPassing clouds.8 mph83%29.95 "HgN/A
3:00 AM79 °FPassing clouds.8 mph84%29.95 "HgN/A
2:30 AM77 °FPassing clouds.6 mph89%29.95 "HgN/A
2:00 AM77 °FPassing clouds.6 mph89%29.95 "HgN/A
1:30 AM79 °FPassing clouds.3 mph84%29.95 "HgN/A
1:00 AM79 °FPassing clouds.6 mph84%29.95 "HgN/A
12:30 AM79 °FPassing clouds.8 mph84%29.98 "HgN/A
11:30 PM
Sun, Aug 2
79 °FPassing clouds.6 mph84%29.98 "HgN/A
11:00 PM79 °FPassing clouds.6 mph84%29.98 "Hg6 mi
10:30 PM79 °FPassing clouds.1 mph89%29.98 "HgN/A
10:00 PM79 °FPassing clouds.3 mph89%29.95 "HgN/A
9:30 PM79 °FPassing clouds.3 mph89%29.95 "HgN/A
9:00 PM81 °FPassing clouds.No wind84%29.95 "HgN/A
8:30 PM81 °FPartly sunny.1 mph84%29.95 "HgN/A
8:00 PM82 °FBroken clouds.3 mph79%29.95 "HgN/A
Weather by CustomWeather, © 2015

See weather overviewHow to use our weather pages